Погода в Хвалынске

Погода в Хвалынске : погода сейчас, прогноз погоды и архив. Всё, что Вы хотите узнать о погоде в Хвалынске!

Поиск расширенной информации на нашем сайте:

Другие новости

Новости СМИ2

Главная страница сайта

Новости сайта

03.07.2017

Напоминаем, что на нашем специализированном сайте Метеоцентр.Азия вы можете получить высокодетализированные автоматические прогнозы погоды по пунктам России, СНГ и мира в авиационном формате (включающие направление и скорость ветра, видимость, явления погоды, количество и форму облачности, нижнюю и верхнюю границу облачности).

Рекомендуем: Подшипники роликовые в кахастане: покупка роликовых подшипников podshipnik-rti.kz.

Погода в Хвалынске - сегодня

Время (UTC), дата Ветер
(°,м/с) 
Видим.   Явления Облачность Т
(°С)
Тd
(°С)
f(%) Тe
(°С)
Pmin
(гПа)
dP
(гПа)
Po
(мм)
O2
(г/м3)
Тmin Tmax R s Состояние
почвы
09 13.01.18 010 (С) 20000 м    ясно 
-11.8 -16.9 66 -14  1038.2  0.2  772  327           
12 13.01.18 310 (СЗ) 20000 м    ясно 
-12 -16.8 67 -14  1037.8  -0.4  772  327           
15 13.01.18 300 (СЗ) 21000 м    ясно 
-12.5 -16.8 70 -12  1037.8  772  327    -11.1       
18 13.01.18 210 (ЮЗ) 17000 м    ясно 
-13.4 -15.8 82 -13  1038  0.2  772  328           
21 13.01.18 тихо ()   18000 м    ясно 
-13.8 -16.4 81 -14  1037.6  -0.5  771  329           
00 14.01.18 280 (З) 18000 м    ясно 
-13.9 -16 84 -18  1036.9  -0.7  771  329           
03 14.01.18 280 (З) 18000 м    ясно 
-12.6 -14.7 84 -16  1035.7  -1.1  770  327  -14.4      17  равномерный
сухой снег
100% 
06 14.01.18 320 (СЗ) 20000 м    4/0 средняя 
[Ac lent]
-13.2 -15.6 82 -17  1035.5  -1.1  770  327           
09 14.01.18 300 (СЗ) 20000 м    10/0 средняя 
[Ac und]
-10.1 -13.3 77 -14  1033.9  -1.5  769  323           
12 14.01.18 280 (З) 10 км  слаб. снег  10/10 660 м 
[Frnb]
-9.5 -12.1 81 -12  1033.8  -0.1  769  322           
15 14.01.18 290 (З) 16000 м  слаб. снег  10/10 800 м 
[Frnb]
-9.6 -11.6 85 -11  1033.8  769  322    -9.2  0.2     
18 14.01.18 310 (СЗ) 16000 м  {снег}  10/10 720 м 
[Sc]
-9 -10.9 86 -11  1034  0.2  769  321           
21 14.01.18 160 (Ю) 15000 м    10/10 840 м 
[Sc]
-9 -10.2 91 -9  1034.8  0.8  770  322           
00 15.01.18 тихо ()   15000 м    10/10 720 м 
[Sc]
-8.8 -9.9 92 -9  1035.1  0.4  770  322           
03 15.01.18 тихо ()   15000 м    10/10 630 м 
[Sc]
-8.4 -9.9 89 -8  1035.7  0.6  770  321  -9.6    0.0  17  равномерный
сухой снег
100% 
06 15.01.18 тихо ()   10 км  слаб. снег  10/10 480 м 
[Frnb|Ns]
-8.1 -9.4 90 -8  1036.6  0.9  771  321           
09 15.01.18 130 (ЮВ) 4000 м  слаб. снег  10/10 420 м 
[Frnb|Ns]
-7.5 -8.8 90 -7  1037.1  0.5  771  321           
12 15.01.18 130 (ЮВ) 20000 м  {снег}  10/10 570 м 
[Sc]
-7.4 -8.4 93 -7  1036.7  -0.4  771  320           
15 15.01.18 тихо ()   13000 м  слаб. снег  10/10 700 м 
[Frnb]
-8 -8.3 98 -8  1036.5  -0.3  771  321    -6.8  0.2     
18 15.01.18 270 (З) 18000 м  слаб. снег  10/10 480 м 
[Frnb|Ns]
-7.7 -9.2 89 -7  1036  -0.3  770  320           
21 15.01.18 280 (З) 17000 м  слаб. снег  10/10 420 м 
[Frnb|Ns]
-7.7 -8.9 91 -7  1036  0.1  770  320           
00 16.01.18 260 (З) 19000 м  слаб. снег  10/10 360 м 
[Frnb|Ns]
-8.2 -8.9 95 -8  1035.2  -0.8  770  321           
03 16.01.18 270 (З) 13000 м  {снег}  10/10 360 м 
[St]
-8.3 -8.5 98 -10  1033.9  -1.3  769  320  -8.4    0.0  17  равномерный
сухой снег
100% 
06 16.01.18 290 (З) 20000 м  {снег}  10/10 360 м 
[St]
-7.2 -7.8 95 -9  1032.7  -1.2  768  319           
09 16.01.18 340 (С) 20000 м    10/10 300 м 
[St]
-6.2 -6.6 97 -8  1031.9  -0.8  767  317           
Время (UTC), дата Ветер
(°,м/с) 
Видим.   Явления Облачность Т
(°С)
Тd
(°С)
f(%) Тe
(°С)
Pmin
(гПа)
dP
(гПа)
Po
(мм)
O2
(г/м3)
Тmin Tmax R s Состояние
почвы

Для получения пояснительной информации подведите курсор к названию столбца.

ПОГОДА в Хвалынске - архив

Всё, что Вы хотите узнать о погоде в Хвалынске - удобно и подробно!

Выберите нужную дату (начиная с 1 января 2015* года) и нажмите кнопку "Найти".
Будут отображены архивные сводки погоды по пункту Хвалынск, начиная с указанной даты.


Отображать данные в формате CSV (для использования в таблицах Excel)


Внимание! Наш архив погоды предназначен исключительно для личного некоммерческого использования в познавательных целях. Если Вам необходимы официальные справки о состоянии погоды (для производственных, юридических, коммерческих и т.п. целей), обращайтесь в органы Росгидромета.

*Примечание: данная дата относится к архиву по метеостанциям СССР (Россия, СНГ, Балтия).
Архив по метеостанциям Зарубежной Европы и Азии (кроме Китая) хранится 10 дней, по другим регионам земного шара (Китай, Африка, Америка, Австралия, Океания) - 1 день.

Хвалынск - район местоположения метеостанции


Название, широта, долгота, высота метеостанции:
Хвалынск 52.5°ш. 48.1°д. 88 м над ур. моря [Российская Федерация]

Дополнительная информация

В oтличие oт бoльшинства пoгoдных сайтoв мы публикуем пoдрoбную метеoинфoрмацию в детальнoм прoфессиoнальнoм фoрмате.

Характеристики температуры и влажнoсти вoздуха измеряются на высoте 2 м в тени вдали oт зданий и деревьев.
Скoрoсть ветра измеряется на высoте 10 м (на урoвне рoста челoвека скoрoсть ветра ниже в 1.5-2 раза). Если метеoстанция нахoдится в гoрoде или в лесу, тo скoрoсть ветра занижена на 2-4 м/с пo сравнению с oткрытым местoм. Скoрoсть ветра над акватoриями крупных рек и oзёр, а также на вершинах хoлмoв на 2-5 м/с выше, чем в oбычных услoвиях.
Атмoсфернoе давление в разных тoчках местнoсти мoжет значительнo oтличаться oт давления на метеoстанции, в зависимoсти oт услoвий рельефа (при пoдъёме на 10 м давление пoнижается примернo на 1 мм рт.ст.).